This is the latest recevied weather packets stored in our database for station/object W7MB. If no packets are shown the sender has not sent any weather packets the latest 10 day(s).
| Time | Temp. | Humidity | Pressure | Rain* | Wind** | Luminosity | Snow |
|---|---|---|---|---|---|---|---|
| 1777512243 | 19.44° C | 43% | 1020.7 hPa | 0 mm | - | - | - |
| 1777511883 | 19.44° C | 41% | 1020.7 hPa | 0 mm | - | - | - |
| 1777511523 | 20° C | 39% | 1020.9 hPa | 0 mm | - | - | - |
| 1777511164 | 20.56° C | 38% | 1020.9 hPa | 0 mm | - | - | - |
| 1777510803 | 21.67° C | 36% | 1020.8 hPa | 0 mm | - | - | - |
| 1777510444 | 22.22° C | 34% | 1020.8 hPa | 0 mm | - | - | - |
| 1777510083 | 22.78° C | 34% | 1020.8 hPa | 0 mm | - | - | - |
| 1777509724 | 23.89° C | 33% | 1020.8 hPa | 0 mm | - | - | - |
| 1777509363 | 23.89° C | 36% | 1020.8 hPa | 0 mm | - | - | - |
| 1777509003 | 23.89° C | 34% | 1020.7 hPa | 0 mm | - | - | - |
| 1777508643 | 23.89° C | 36% | 1020.6 hPa | 0 mm | - | - | - |
| 1777508283 | 23.33° C | 34% | 1020.5 hPa | 0 mm | - | - | - |
| 1777507923 | 23.33° C | 35% | 1020.6 hPa | 0 mm | - | - | - |
| 1777507563 | 23.33° C | 34% | 1020.8 hPa | 0 mm | - | - | - |
| 1777507204 | 23.33° C | 38% | 1020.6 hPa | 0 mm | - | - | - |
| 1777506843 | 23.89° C | 33% | 1020.7 hPa | 0 mm | - | - | - |
| 1777506484 | 23.89° C | 38% | 1020.8 hPa | 0 mm | - | - | - |
| 1777506123 | 23.33° C | 40% | 1020.8 hPa | 0 mm | - | - | - |
| 1777505763 | 23.33° C | 40% | 1020.8 hPa | 0 mm | - | - | - |
| 1777505403 | 22.78° C | 40% | 1020.8 hPa | 0 mm | - | - | - |
| 1777505043 | 22.22° C | 43% | 1020.9 hPa | 0 mm | - | - | - |
| 1777504684 | 22.22° C | 44% | 1021 hPa | 0 mm | - | - | - |
| 1777504324 | 21.67° C | 38% | 1021 hPa | 0 mm | - | - | - |
| 1777503963 | 21.67° C | 44% | 1021 hPa | 0 mm | - | - | - |
| 1777503604 | 20.56° C | 49% | 1021 hPa | 0 mm | - | - | - |
* Rain latest hour (hover to see other rain measurements)
** Current wind speed in m/s (hover to see current wind gust speed)